Location: Oriwa
(40.7500°S, 175.3333°E)
Time: 12:24:36
(UTC+00:00)

NOSS 3-1 (C) - Pass Details

Date: 03 February 2023
Orbit: 688 x 1519 km, 63.4° (Epoch: 28 March)

Event Time Altitude Azimuth Distance (km) Brightness Sun altitude
Rises 11:57:24 0° 214° (SW) 3,858 7.5 -32.2°
Reaches altitude 10° 12:00:19 10° 211° (SSW) 2,768 6.6 -32.3°
Enters shadow 12:05:40 58° 180° (S) 1,014 3.7 -32.4°
